Voltar ao catálogo

STARLINK-3974

AtivoComunicaçõesVLEO
NORAD 52634·PAYLOAD·🇺🇸 United States

Lançado May 14, 2022 de Cape Canaveral Space Force Station

Loading…

Próximas Passagens (próximas 24 horas)

TLE

AtualizadoSource: CelesTrak SupGP

Época: Sep 14, 2026, 21:54 UTC

1 52634C 22052AN  26257.91298611 -.00014290  00000+0 -40887-3 0  2574
2 52634  53.1571 128.8485 0001227  87.0461 224.4112 15.35404061    14

Acompanhe STARLINK-3974 em tempo real com AllMySat

Download on the App Store